Regional Weather Roundup
Issued by NWS

Home | Current Version | Previous Version | Text Only | Print | Product List | Glossary On
Versions: 1 2 3 4 5 6 7 8 9 10 11 12 13 14 15 16 17 18 19 20 21 22 23 24 25 26 27 28 29 30 31 32 33 34 35 36 37 38 39 40 41 42 43 44 45 46 47 48 49 50
000
ASUS43 KDMX 012207
RWRIA

WEATHER ROUNDUP FOR IOWA
NATIONAL WEATHER SERVICE DES MOINES IA
500 PM CDT SAT AUG 01 2015

NOTE: "FAIR" INDICATES FEW OR NO CLOUDS BELOW 12,000 FEET WITH NO
SIGNIFICANT WEATHER AND/OR OBSTRUCTIONS TO VISIBILITY.

* - THESE STATIONS ARE NOT NWS STATIONS...THUS NOT UNDER NWS
QUALITY CONTROL.  THEY ALSO DO NOT REPORT WEATHER SUCH
AS PRECIPITATION OR FOG.

IAZ001>003-012>014-020>022-031>034-043>046-012300-
   NORTHWEST IOWA

CITY           SKY/WX    TMP DP  RH WIND       PRES   REMARKS
CARROLL *      SUNNY     82  73  74 SW6       29.95F HX  88
CHEROKEE *     CLOUDY    82  68  61 SW6       29.94F HX  85
DENISON *      SUNNY     81  72  74 SW5       29.94F HX  84
LE MARS *      SUNNY     82  66  57 S12       29.92F HX  85
ORANGE CITY *  SUNNY     81  63  54 W9        29.93F HX  82
SHELDON *      SUNNY     82  64  54 W7        29.91F HX  84
SIOUX CITY     PTSUNNY   82  67  60 S10       29.92F HX  84
SPENCER        PTSUNNY   84  62  47 W13       29.93F HX  85
STORM LAKE *   SUNNY     82  70  65 SW9       29.96S HX  86
$$

IAZ055>058-069>071-079>083-090>094-012300-
   SOUTHWEST IOWA

CITY           SKY/WX    TMP DP  RH WIND       PRES   REMARKS
ATLANTIC *     SUNNY     82  72  69 SW7       29.97S HX  87
AUDUBON *      SUNNY     82  72  69 SW6       29.98F HX  87
CLARINDA *     SUNNY     86  73  66 SW7       29.98F HX  93
COUNCIL BLFS * SUNNY     79  70  73 SE6       29.97F HX  81
CRESTON *      SUNNY     82  73  74 SW8       29.98F HX  88
HARLAN  *      SUNNY     81  75  83 SW5       30.00F HX  86
LAMONI         MOSUNNY   87  71  58 CALM      29.96F HX  93
RED OAK *      SUNNY     82  72  69 SW8       29.97F HX  87
SHENANDOAH *   SUNNY     82  73  74 SW6       29.97F HX  88
$$

IAZ047>049-059>061-072>074-084-012300-
   CENTRAL IOWA

CITY           SKY/WX    TMP DP  RH WIND       PRES   REMARKS
AMES           PTSUNNY   85  69  58 S5        29.93F HX  89
ANKENY *       SUNNY     88  70  55 CALM      29.93F HX  92
CHARITON *     SUNNY     86  72  62 W3        29.95F HX  92
DES MOINES     CLOUDY    87  69  54 S8        29.92F HX  91
GRINNELL*      PTSUNNY   84  68  58 SW3       29.96S HX  87
KNOXVILLE *    SUNNY     86  72  62 CALM      29.93F HX  92
MARSHALLTOWN   PTSUNNY   84  69  60 W6        29.94F HX  88
PELLA *        PTSUNNY   88  75  66 W3        29.95F HX  97
PERRY *          N/A     84  73  70 SW3       29.94F HX  91
$$

IAZ004>006-015-016-023>025-035-036-012300-
   NORTH CENTRAL IOWA

CITY           SKY/WX    TMP DP  RH WIND       PRES   REMARKS
ALGONA *       SUNNY     84  68  58 SW8       29.92F HX  87
CLARION *      SUNNY     82  70  65 SW5       29.93F HX  86
ESTHERVILLE    MOSUNNY   83  67  58 SW9       29.92F HX  85
FORT DODGE *   CLOUDY    84  66  54 S5        29.93F HX  86
MASON CITY     PTSUNNY   86  69  56 W14       29.94F HX  90
FOREST CITY *  SUNNY     82  64  54 SW7       29.93F HX  84
IOWA FALLS *     N/A     84  70  61 W5        29.95F HX  88
$$

IAZ007>011-017>019-026>030-037>042-050>054-066-012300-
   NORTHEAST IOWA

CITY           SKY/WX    TMP DP  RH WIND       PRES   REMARKS
CEDAR RAPIDS   PTSUNNY   84  74  71 SW6       29.94F HX  91
CHARLES CITY * SUNNY     84  70  61 W7        29.93F HX  88
CLINTON *      MOSUNNY   82  66  57 W13       29.96F HX  85
DECORAH *      SUNNY     82  64  54 VRB6G14   29.93F HX  84
DUBUQUE        MOSUNNY   83  69  62 W12       29.94F HX  86
MONTICELLO *   SUNNY     84  70  61 W10       29.94S HX  88
OELWEIN *      SUNNY     84  70  61 W8        29.95F HX  88
WATERLOO       CLOUDY    84  70  62 W7        29.92F HX  88
$$

IAZ064-065-067-068-078-012300-
   EAST CENTRAL IOWA

CITY           SKY/WX    TMP DP  RH WIND       PRES   REMARKS
DAVENPORT      MOSUNNY   84  65  52 W10       29.95F HX  86
IOWA CITY      PTSUNNY   85  69  58 W7        29.95F HX  89
MT. PLEASANT * MOSUNNY   90  63  40 SW3       29.96F HX  90
MUSCATINE *    SUNNY     88  66  48 W8        29.95S HX  90
QUAD CITIES    MOSUNNY   84  64  50 SW8       29.94F HX  85
$$

IAZ062-063-075>077-085>089-095>099-012300-
   SOUTHEAST IOWA

CITY           SKY/WX    TMP DP  RH WIND       PRES   REMARKS
BURLINGTON     SUNNY     85  69  58 W5        29.96F HX  89
FAIRFIELD *    SUNNY     86  70  58 W7        29.95F HX  90
FORT MADISON * SUNNY     86  72  62 S3        29.97F HX  92
KEOKUK *       PTSUNNY   88  72  58 W6        29.95F HX  94
OSKALOOSA *      N/A     84  70  61 CALM      29.95F HX  88
CENTERVILLE *  SUNNY     86  72  62 SW3       29.97F HX  92
OTTUMWA        SUNNY     86  72  62 SW3       29.93F HX  92
WASHINGTON *   SUNNY     86  70  58 W7        29.96F HX  90
$$

ABBREVIATIONS USED IN REMARKS
   TC - TEMPERATURES IN CELSIUS
  WCI - WIND CHILL INDEX
   HX - HEAT INDEX
  VSB - VISIBILITY
$$




USA.gov is the U.S. government's official web portal to all federal, state and local government web resources and services.